User: anonymous   Login
Location: Unspecified
(0.0000°N, 0.0000°E)
Time: 02:10:32
(UTC+02:00)
Language:

Cosmos 1536 - Orbit

View from above orbital plane
View from above orbital plane
View from above satellite
View from above satellite

Ground track
Ground track

The orbit data is extracted from the following two-line orbital elements,

1 14699U 84013A   16210.18322802 -.00000113  00000-0 -10082-4 0  9993
2 14699  82.5262 283.1443 0014559  82.7943 277.4938 15.04766875764363
Epoch (UTC): 28 July 2016 04:23:50
Eccentricity: 0.0014559
inclination: 82.5262°
perigee height: 542 km
apogee height: 562 km
right ascension of ascending node: 283.1443°
argument of perigee: 82.7943°
revolutions per day: 15.04766875
mean anomaly at epoch: 277.4938°
orbit number at epoch: 76436

The dashed part of the orbit path shows where the satellite is in the earth's shadow,  

DLR